LHA524 KSEA-KMFR

Flight info

Callsign LHA524
Flight time 0h 55m
Altitude 23000
Route FEPOT DCT SAMIE
Aircraft A320/M-SDE1E2FGIJ1RWYZ/LB1

Departure

Time 2026-04-25 12:37
Airport Seattle–Tacoma International Airport (KSEA)

Arrival

Time 2026-04-25 13:32
Airport Rogue Valley International-Medford Airport (KMFR)
Time Latitude Longitude Altitude Speed Heading
2026-04-25 12:13 47.44680 -122.30398 384 ft 0 kts 186°
2026-04-25 12:25 47.44677 -122.30389 384 ft 0 kts 217°
2026-04-25 12:29 47.44696 -122.30367 384 ft 4 kts 226°
2026-04-25 12:29 47.44712 -122.30336 384 ft 4 kts 248°
2026-04-25 12:29 47.44716 -122.30300 384 ft 4 kts 297°
2026-04-25 12:29 47.44712 -122.30290 384 ft 0 kts 311°
2026-04-25 12:32 47.44720 -122.30303 384 ft 3 kts 311°
2026-04-25 12:32 47.44742 -122.30341 384 ft 6 kts 311°
2026-04-25 12:32 47.44766 -122.30412 384 ft 9 kts 278°
2026-04-25 12:33 47.44761 -122.30520 384 ft 10 kts 240°
2026-04-25 12:33 47.44683 -122.30540 384 ft 14 kts 180°
2026-04-25 12:33 47.44576 -122.30540 384 ft 17 kts 180°
2026-04-25 12:33 47.44447 -122.30540 384 ft 19 kts 182°
2026-04-25 12:34 47.44325 -122.30540 384 ft 18 kts 177°
2026-04-25 12:34 47.44194 -122.30541 384 ft 20 kts 180°
2026-04-25 12:34 47.44058 -122.30540 384 ft 15 kts 182°
2026-04-25 12:34 47.44005 -122.30556 384 ft 10 kts 214°
2026-04-25 12:35 47.43920 -122.30639 384 ft 14 kts 182°
2026-04-25 12:35 47.43835 -122.30637 384 ft 11 kts 180°
2026-04-25 12:35 47.43797 -122.30716 384 ft 13 kts 268°
2026-04-25 12:35 47.43803 -122.30771 384 ft 5 kts 291°
2026-04-25 12:36 47.43839 -122.30799 384 ft 8 kts 354°
2026-04-25 12:36 47.43993 -122.30797 384 ft 55 kts
2026-04-25 12:36 47.44632 -122.30792 384 ft 124 kts
2026-04-25 12:36 47.45637 -122.30778 615 ft 151 kts
2026-04-25 12:37 47.46693 -122.30783 1319 ft 151 kts
2026-04-25 12:37 47.47745 -122.30767 2036 ft 151 kts
2026-04-25 12:37 47.48838 -122.30739 2492 ft 167 kts
2026-04-25 12:37 47.50075 -122.30708 2846 ft 190 kts
2026-04-25 12:38 47.51474 -122.30749 3231 ft 211 kts 359°
2026-04-25 12:38 47.53035 -122.30833 3647 ft 237 kts 358°
2026-04-25 12:38 47.54743 -122.30959 4381 ft 251 kts 354°
2026-04-25 12:38 47.56402 -122.31843 5316 ft 261 kts 329°
2026-04-25 12:39 47.57909 -122.33380 6325 ft 264 kts 327°
2026-04-25 12:39 47.59380 -122.35043 7261 ft 270 kts 317°
2026-04-25 12:39 47.60534 -122.37269 8224 ft 276 kts 301°
2026-04-25 12:39 47.61200 -122.39948 9150 ft 282 kts 284°
2026-04-25 12:40 47.61481 -122.42870 10011 ft 291 kts 275°
2026-04-25 12:40 47.61277 -122.45896 10762 ft 302 kts 258°
2026-04-25 12:40 47.60462 -122.48844 11419 ft 317 kts 240°
2026-04-25 12:40 47.59050 -122.51406 12050 ft 329 kts 227°
2026-04-25 12:41 47.57429 -122.53874 12741 ft 337 kts 227°
2026-04-25 12:41 47.55779 -122.56389 13414 ft 345 kts 228°
2026-04-25 12:41 47.54078 -122.58987 13992 ft 356 kts 228°
2026-04-25 12:41 47.52333 -122.61652 14485 ft 366 kts 228°
2026-04-25 12:42 47.50537 -122.64394 14987 ft 376 kts 228°
2026-04-25 12:42 47.49946 -122.65296 15149 ft 379 kts 228°
2026-04-25 12:42 47.46855 -122.70015 16098 ft 388 kts 228°
2026-04-25 12:42 47.44971 -122.72885 16759 ft 391 kts 229°
2026-04-25 12:43 47.43066 -122.75781 17429 ft 395 kts 229°
2026-04-25 12:43 47.41140 -122.78703 18106 ft 399 kts 229°
2026-04-25 12:43 47.37226 -122.84625 19336 ft 407 kts 229°
2026-04-25 12:44 47.35239 -122.87630 19938 ft 412 kts 229°
2026-04-25 12:44 47.33231 -122.90669 20532 ft 416 kts 229°
2026-04-25 12:44 47.29139 -122.96843 21615 ft 425 kts 230°
2026-04-25 12:45 47.27068 -122.99966 22129 ft 429 kts 230°
2026-04-25 12:45 47.24964 -123.03124 22629 ft 434 kts 228°
2026-04-25 12:45 47.20091 -123.08798 22976 ft 460 kts 220°
2026-04-25 12:46 47.17497 -123.11638 22967 ft 472 kts 220°
2026-04-25 12:46 47.14834 -123.14542 22968 ft 479 kts 220°
2026-04-25 12:46 47.12111 -123.17381 22968 ft 483 kts 214°
2026-04-25 12:46 47.09102 -123.19603 22975 ft 487 kts 204°
2026-04-25 12:47 47.05842 -123.21027 22970 ft 490 kts 193°
2026-04-25 12:47 47.02450 -123.21585 22977 ft 492 kts 181°
2026-04-25 12:47 46.99026 -123.21453 22988 ft 493 kts 178°
2026-04-25 12:47 46.95600 -123.21265 22987 ft 493 kts 178°
2026-04-25 12:48 46.92172 -123.21080 22981 ft 493 kts 178°
2026-04-25 12:48 46.88730 -123.20901 22979 ft 494 kts 178°
2026-04-25 12:48 46.85298 -123.20736 22975 ft 494 kts 179°
2026-04-25 12:48 46.81903 -123.20584 22974 ft 494 kts 179°
2026-04-25 12:49 46.78463 -123.20431 22974 ft 494 kts 179°
2026-04-25 12:49 46.75028 -123.20272 22969 ft 495 kts 179°
2026-04-25 12:49 46.71588 -123.20113 22964 ft 495 kts 179°
2026-04-25 12:49 46.68134 -123.19957 22963 ft 495 kts 179°
2026-04-25 12:50 46.64690 -123.19797 22959 ft 496 kts 179°
2026-04-25 12:50 46.61237 -123.19635 22956 ft 496 kts 179°
2026-04-25 12:50 46.57789 -123.19469 22955 ft 496 kts 179°
2026-04-25 12:50 46.54337 -123.19299 22951 ft 496 kts 179°
2026-04-25 12:51 46.50890 -123.19124 22947 ft 497 kts 179°
2026-04-25 12:51 46.47438 -123.18941 22943 ft 497 kts 179°
2026-04-25 12:51 46.45139 -123.18816 22941 ft 498 kts 179°
2026-04-25 12:51 46.41679 -123.18619 22936 ft 498 kts 179°
2026-04-25 12:52 46.38210 -123.18415 22928 ft 499 kts 179°
2026-04-25 12:52 46.34740 -123.18205 22926 ft 500 kts 179°
2026-04-25 12:52 46.31262 -123.17988 22932 ft 501 kts 179°
2026-04-25 12:52 46.27775 -123.17767 22927 ft 501 kts 179°
2026-04-25 12:53 46.24287 -123.17540 22923 ft 502 kts 179°
2026-04-25 12:53 46.20802 -123.17307 22921 ft 503 kts 179°
2026-04-25 12:53 46.17306 -123.17259 22917 ft 503 kts 183°
2026-04-25 12:53 46.13819 -123.16890 22910 ft 506 kts 168°
2026-04-25 12:54 46.10476 -123.15278 22913 ft 507 kts 156°
2026-04-25 12:54 46.07311 -123.13046 22911 ft 507 kts 151°
2026-04-25 12:54 46.04073 -123.11056 22899 ft 507 kts 166°
2026-04-25 12:54 46.00585 -123.10355 22891 ft 505 kts 180°
2026-04-25 12:55 45.97080 -123.10226 22874 ft 505 kts 180°
2026-04-25 12:55 45.94752 -123.10142 22881 ft 505 kts 181°
2026-04-25 12:55 45.90050 -123.09980 22847 ft 505 kts 181°
2026-04-25 12:55 45.86533 -123.09870 22855 ft 505 kts 181°
2026-04-25 12:56 45.83018 -123.09769 22944 ft 505 kts 181°
2026-04-25 12:56 45.79494 -123.09674 22997 ft 507 kts 181°
2026-04-25 12:56 45.75964 -123.09583 22996 ft 507 kts 181°
2026-04-25 12:56 45.72447 -123.09496 22994 ft 507 kts 181°
2026-04-25 12:57 45.68918 -123.09409 22996 ft 507 kts 181°
2026-04-25 12:57 45.65388 -123.09319 22988 ft 507 kts 181°
2026-04-25 12:57 45.61859 -123.09224 22987 ft 507 kts 181°
2026-04-25 12:57 45.58373 -123.09131 22989 ft 507 kts 181°
2026-04-25 12:58 45.54845 -123.09035 22985 ft 507 kts 181°
2026-04-25 12:58 45.51318 -123.08940 22979 ft 507 kts 181°
2026-04-25 12:58 45.47789 -123.08841 22975 ft 507 kts 181°
2026-04-25 12:58 45.44262 -123.08744 22971 ft 507 kts 181°
2026-04-25 12:59 45.40738 -123.08648 22969 ft 506 kts 181°
2026-04-25 12:59 45.37218 -123.08554 22952 ft 506 kts 181°
2026-04-25 12:59 45.33696 -123.08463 22949 ft 506 kts 181°
2026-04-25 12:59 45.30175 -123.08370 22945 ft 506 kts 181°
2026-04-25 13:00 45.26660 -123.08274 22948 ft 506 kts 181°
2026-04-25 13:00 45.24324 -123.08211 22944 ft 506 kts 181°
2026-04-25 13:00 45.19630 -123.08082 22946 ft 505 kts 181°
2026-04-25 13:00 45.16122 -123.07985 22944 ft 505 kts 181°
2026-04-25 13:01 45.12602 -123.07893 22943 ft 504 kts 181°
2026-04-25 13:01 45.09102 -123.07805 22950 ft 504 kts 181°
2026-04-25 13:01 45.05601 -123.07718 22941 ft 503 kts 181°
2026-04-25 13:01 45.02097 -123.07628 22934 ft 503 kts 181°
2026-04-25 13:02 44.98596 -123.07535 22944 ft 503 kts 181°
2026-04-25 13:02 44.95089 -123.07439 22944 ft 503 kts 181°
2026-04-25 13:02 44.91600 -123.07341 22935 ft 502 kts 181°
2026-04-25 13:02 44.88105 -123.07242 22936 ft 502 kts 181°
2026-04-25 13:03 44.84612 -123.07148 22940 ft 502 kts 181°
2026-04-25 13:03 44.81127 -123.07061 22934 ft 501 kts 181°
2026-04-25 13:03 44.77637 -123.06976 22932 ft 501 kts 181°
2026-04-25 13:03 44.74156 -123.06889 22933 ft 501 kts 181°
2026-04-25 13:04 44.70662 -123.06796 22929 ft 501 kts 181°
2026-04-25 13:04 44.67179 -123.06702 22928 ft 501 kts 181°
2026-04-25 13:04 44.63747 -123.06611 22932 ft 501 kts 181°
2026-04-25 13:04 44.60214 -123.06519 22933 ft 500 kts 181°
2026-04-25 13:05 44.56776 -123.06430 22933 ft 500 kts 181°
2026-04-25 13:05 44.53297 -123.06340 22939 ft 500 kts 181°
2026-04-25 13:05 44.49775 -123.06250 22939 ft 500 kts 181°
2026-04-25 13:05 44.46297 -123.06162 22946 ft 500 kts 181°
2026-04-25 13:06 44.42870 -123.06078 22950 ft 499 kts 181°
2026-04-25 13:06 44.39399 -123.05992 22947 ft 499 kts 181°
2026-04-25 13:06 44.35922 -123.05904 22944 ft 499 kts 181°
2026-04-25 13:06 44.32456 -123.05811 22941 ft 499 kts 181°
2026-04-25 13:07 44.28989 -123.05718 22941 ft 499 kts 181°
2026-04-25 13:07 44.25520 -123.05628 22935 ft 498 kts 181°
2026-04-25 13:07 44.22055 -123.05541 22940 ft 498 kts 181°
2026-04-25 13:07 44.18586 -123.05452 22933 ft 498 kts 181°
2026-04-25 13:08 44.15122 -123.05363 22945 ft 498 kts 181°
2026-04-25 13:08 44.11659 -123.05275 22938 ft 498 kts 181°
2026-04-25 13:08 44.08205 -123.05186 22940 ft 497 kts 181°
2026-04-25 13:08 44.04743 -123.05097 22943 ft 497 kts 181°
2026-04-25 13:09 44.01282 -123.05009 22949 ft 497 kts 181°
2026-04-25 13:09 43.97826 -123.04921 22943 ft 497 kts 181°
2026-04-25 13:09 43.94374 -123.04832 22942 ft 496 kts 181°
2026-04-25 13:09 43.90923 -123.04741 22941 ft 496 kts 181°
2026-04-25 13:10 43.87466 -123.04650 22939 ft 496 kts 181°
2026-04-25 13:10 43.84017 -123.04563 22936 ft 496 kts 181°
2026-04-25 13:10 43.80571 -123.04481 22936 ft 496 kts 181°
2026-04-25 13:10 43.77118 -123.04401 22933 ft 496 kts 182°
2026-04-25 13:11 43.73670 -123.04319 22931 ft 496 kts 181°
2026-04-25 13:11 43.70224 -123.04233 22934 ft 495 kts 181°
2026-04-25 13:11 43.66777 -123.04144 22940 ft 495 kts 181°
2026-04-25 13:11 43.63337 -123.04053 22936 ft 495 kts 181°
2026-04-25 13:12 43.59936 -123.03962 22924 ft 495 kts 181°
2026-04-25 13:12 43.56494 -123.03872 22935 ft 495 kts 181°
2026-04-25 13:12 43.53049 -123.03785 22931 ft 495 kts 181°
2026-04-25 13:12 43.50723 -123.03727 22938 ft 495 kts 181°
2026-04-25 13:13 43.46167 -123.03611 22941 ft 495 kts 181°
2026-04-25 13:13 43.42732 -123.03523 22944 ft 494 kts 181°
2026-04-25 13:13 43.39288 -123.03440 22946 ft 494 kts 181°
2026-04-25 13:13 43.35848 -123.03360 22939 ft 494 kts 181°
2026-04-25 13:14 43.32410 -123.03277 22936 ft 494 kts 181°
2026-04-25 13:14 43.28976 -123.03191 22940 ft 494 kts 181°
2026-04-25 13:14 43.25540 -123.03104 22941 ft 494 kts 181°
2026-04-25 13:14 43.22102 -123.03019 22937 ft 493 kts 181°
2026-04-25 13:15 43.18677 -123.02934 22939 ft 493 kts 181°
2026-04-25 13:15 43.15242 -123.02849 22765 ft 493 kts 181°
2026-04-25 13:15 43.11830 -123.02764 22321 ft 489 kts 181°
2026-04-25 13:15 43.08443 -123.02680 21844 ft 485 kts 181°
2026-04-25 13:16 43.05079 -123.02595 21365 ft 480 kts 181°
2026-04-25 13:16 43.01758 -123.02509 20901 ft 476 kts 181°
2026-04-25 13:16 42.98460 -123.02423 20435 ft 472 kts 181°
2026-04-25 13:16 42.95195 -123.02341 19973 ft 468 kts 181°
2026-04-25 13:17 42.91951 -123.02261 19537 ft 464 kts 181°
2026-04-25 13:17 42.88740 -123.02181 19097 ft 460 kts 181°
2026-04-25 13:17 42.85557 -123.02104 18663 ft 456 kts 181°
2026-04-25 13:17 42.82444 -123.02031 18242 ft 452 kts 181°
2026-04-25 13:18 42.79312 -123.01957 17758 ft 448 kts 181°
2026-04-25 13:18 42.76207 -123.01885 17272 ft 445 kts 181°
2026-04-25 13:18 42.73131 -123.01812 16789 ft 441 kts 181°
2026-04-25 13:18 42.70073 -123.01692 16326 ft 439 kts 177°
2026-04-25 13:19 42.67090 -123.00865 15869 ft 438 kts 162°
2026-04-25 13:19 42.64344 -122.99110 15418 ft 435 kts 148°
2026-04-25 13:19 42.62022 -122.96567 14974 ft 426 kts 134°
2026-04-25 13:19 42.60769 -122.94549 14675 ft 418 kts 126°
2026-04-25 13:20 42.58502 -122.90358 14101 ft 406 kts 126°
2026-04-25 13:20 42.56848 -122.87309 13671 ft 396 kts 126°
2026-04-25 13:20 42.55230 -122.84335 13190 ft 387 kts 126°
2026-04-25 13:20 42.53646 -122.81433 12719 ft 380 kts 126°
2026-04-25 13:21 42.52090 -122.78580 12255 ft 373 kts 126°
2026-04-25 13:21 42.50560 -122.75776 11792 ft 366 kts 126°
2026-04-25 13:21 42.49058 -122.73024 11337 ft 361 kts 126°
2026-04-25 13:21 42.47576 -122.70315 10957 ft 354 kts 126°
2026-04-25 13:22 42.46124 -122.67671 10618 ft 346 kts 127°
2026-04-25 13:22 42.44706 -122.65091 10323 ft 338 kts 127°
2026-04-25 13:22 42.43332 -122.62588 10038 ft 332 kts 127°
2026-04-25 13:23 42.40319 -122.58065 9425 ft 319 kts 146°
2026-04-25 13:23 42.38394 -122.56665 9106 ft 312 kts 161°
2026-04-25 13:23 42.36313 -122.55965 8758 ft 306 kts 175°
2026-04-25 13:23 42.34209 -122.55668 8420 ft 301 kts 176°
2026-04-25 13:24 42.32184 -122.55379 8091 ft 285 kts 175°
2026-04-25 13:24 42.30255 -122.55096 7759 ft 273 kts 175°
2026-04-25 13:24 42.28418 -122.54838 7483 ft 259 kts 179°
2026-04-25 13:24 42.26674 -122.55038 7209 ft 245 kts 195°
2026-04-25 13:25 42.25123 -122.55827 6952 ft 236 kts 211°
2026-04-25 13:25 42.23801 -122.57110 6681 ft 233 kts 225°
2026-04-25 13:25 42.22747 -122.58747 6420 ft 231 kts 237°
2026-04-25 13:25 42.21993 -122.60640 6142 ft 229 kts 249°
2026-04-25 13:26 42.21550 -122.62692 5848 ft 227 kts 256°
2026-04-25 13:26 42.21298 -122.64776 5570 ft 225 kts 269°
2026-04-25 13:26 42.21440 -122.66870 5292 ft 224 kts 283°
2026-04-25 13:26 42.21860 -122.68883 5012 ft 222 kts 286°
2026-04-25 13:27 42.22275 -122.70851 4759 ft 213 kts 286°
2026-04-25 13:27 42.22760 -122.72665 4552 ft 200 kts 298°
2026-04-25 13:27 42.23452 -122.74244 4338 ft 192 kts 301°
2026-04-25 13:27 42.24119 -122.75747 4128 ft 186 kts 301°
2026-04-25 13:28 42.24782 -122.77245 3918 ft 182 kts 301°
2026-04-25 13:28 42.24990 -122.77717 3865 ft 181 kts 301°
2026-04-25 13:28 42.26224 -122.79948 3489 ft 176 kts 313°
2026-04-25 13:28 42.27100 -122.81086 3274 ft 172 kts 320°
2026-04-25 13:29 42.28025 -122.82031 3064 ft 159 kts 327°
2026-04-25 13:29 42.28930 -122.82757 2860 ft 147 kts 333°
2026-04-25 13:29 42.29843 -122.83327 2668 ft 142 kts 339°
2026-04-25 13:30 42.31671 -122.84280 2317 ft 140 kts 339°
2026-04-25 13:30 42.32576 -122.84753 2138 ft 140 kts 339°
2026-04-25 13:30 42.33481 -122.85227 1963 ft 140 kts 339°
2026-04-25 13:31 42.35303 -122.86181 1602 ft 141 kts 339°
2026-04-25 13:31 42.36214 -122.86660 1418 ft 141 kts 339°
2026-04-25 13:31 42.37082 -122.87114 1332 ft 117 kts 339°
2026-04-25 13:31 42.37702 -122.87438 1320 ft 74 kts 339°
2026-04-25 13:32 42.38048 -122.87616 1315 ft 22 kts 339°
2026-04-25 13:32 42.38051 -122.87731 1314 ft 15 kts 238°
2026-04-25 13:32 42.37949 -122.87728 1315 ft 17 kts 156°
2026-04-25 13:32 42.37832 -122.87666 1317 ft 19 kts 159°
2026-04-25 13:33 42.37699 -122.87596 1319 ft 21 kts 158°
2026-04-25 13:33 42.37553 -122.87520 1322 ft 24 kts 159°
2026-04-25 13:33 42.37400 -122.87440 1327 ft 22 kts 159°
2026-04-25 13:33 42.37312 -122.87393 1326 ft 19 kts 159°
2026-04-25 13:34 42.37154 -122.87311 1329 ft 18 kts 159°
2026-04-25 13:34 42.37050 -122.87277 1335 ft 11 kts 213°
2026-04-25 13:34 42.37016 -122.87380 1331 ft 12 kts 248°
2026-04-25 13:34 42.37008 -122.87409 1331 ft 0 kts 250°